NOAA 16 DEB, 41398

Orbit data source: Space-Track

NOAA 16 DEB, 41398 is space debris in SSO originally from a launch on Thu, 21 Sep 2000 UTC launched from the Air Force Western Test Range (AFWTR). Debris objects in space refer to the collection of defunct objects orbiting the Earth. Examples of debris include non-operational satellites, rocket bodies, and fragments generated from explosions, collisions, or faulty payload assembly.

Loading next visibility...
Identifier
41398, 2000-055KB
Orbit
SSO
Country
Flag of USUS
Related business
Manufacturer
Unknown
Mission
Spacecraft
Bus & Motor
Unknown
Mass
Unknown
Launch date (UTC)
2000-09-21 (25 years ago)
Launch vehicle
Unknown
Launch site
Air Force Western Test Range (AFWTR)
Object type
Payload
Rocket body
Debris
Shape & HBR
Unknown shape, 0.1 m
Radar Cross Section
Small (<0.1 m²)

Expand to show TLE details & history
Last TLE update: 15 hours ago

TLE from 15 hours ago
0 NOAA 16 DEB
1 41398U 00055KB  25293.27339519  .00011387  00000-0  39644-2 0  9993
2 41398  98.8132  45.7477 0016519 204.5187 155.5214 14.35473815499793
Epoch: 2025-10-20T06:33Z
TLE epoch observation values (Epoch: 2025-10-20T06:33:41.344Z)
Latitude
0.00001°
Longitude
-81.65264°
Altitude
787.182 km
Speed
7.455 km/s
True Right ascension
03h 02m 59s
True Declination
0° 00' 00"
Sunlit
Object was in full shadow at epoch
Visualization orbit readout
Latitude
Unknown
Longitude
Unknown
Altitude
Unknown
Speed
Unknown
Apparent Right ascension
Unknown
Apparent Declination
Unknown
Sunlit
N/A
Visualization observer readout
Local Sidereal Time
16:18:43
Azimuth
Unknown
Elevation
Unknown
Doppler factor
Unknown
Orbital elements
Apogee altitude
782.444 km
Perigee altitude
758.826 km
Semi-major axis
7,148.772 km
Eccentricity
0.00165
Inclination
98.8132°
RAAN
45.7477°
Arg. of periapsis
204.5187°
True anomaly
155.59969°
Mean anomaly
155.5214°
Eccentric anomaly
155.56056°
Mean motion
3.59084 °/min
Orbital period
100.26 mins
BSTAR
0.0039644
Loading maneuver chart data...
Computing Atmospheric mass density...
Loading historical data...
Loading historical data...
Loading historical data...
Loading historical data...
Loading historical data...
Loading historical data...
Loading historical data...

Documentation

Showing up to 5 results
|